Regional Weather Roundup
Issued by NWS Albany, NY

Home | Current Version | Previous Version | Graphics & Text | Print | Product List | Glossary Off
Versions: 1 2 3 4 5 6 7 8 9 10 11 12 13 14 15 16 17 18 19 20 21 22 23 24 25 26 27 28 29 30 31 32 33 34 35 36 37 38 39 40 41 42 43 44 45 46 47 48 49 50

000
ASUS41 KALY 051910
RWRALY

NEW YORK STATE HOURLY WEATHER ROUNDUP
NATIONAL WEATHER SERVICE ALBANY NY
200 PM EST THU MAR 05 2015

NOTE: "FAIR" INDICATES FEW OR NO CLOUDS BELOW 12,000 FEET WITH NO
SIGNIFICANT WEATHER AND/OR NO OBSTRUCTIONS TO VISIBILITY.

NYZ032-033-038>043-046>054-057>066-NYZ062>081-052000-
EAST


CITY           SKY/WX    TMP DP  RH WIND       PRES   REMARKS
ALBANY         CLOUDY    21   5  50 NW16      30.17R WCI   7
GLENS FALLS    CLOUDY    20   1  43 N10       30.18R WCI   9
POUGHKEEPSIE   CLOUDY    24   4  42 N10       30.16R WCI  14
NEWBURGH       PTSUNNY   25   5  42 N12       30.13R WCI  14
MONTGOMERY     CLOUDY    23   2  40 NW9       30.13R WCI  13
WHITE PLAINS   CLOUDY    22  17  81 NW3       30.10F
ISLIP          LGT SNOW  21  17  84 N9        30.11F VSB 3/4 WCI  11
NEW YORK CITY  SNOW      23  19  85 NW13      30.14F VSB 1/4 WCI  11
CENTRAL PARK   SNOW      20  17  88 NW8       30.15F VSB 1/2 WCI  10
$$

NYZ005>009-017-018-044>046-055-056-052000-
CENTRAL


CITY           SKY/WX    TMP DP  RH WIND       PRES   REMARKS
FULTON         PTSUNNY   15   1  53 N6        30.26F WCI   6
SYRACUSE       CLOUDY    12   4  70 NW10      30.25F WCI  -1
ROME           CLOUDY    15   4  61 W8        30.23F WCI   4
ELMIRA         CLOUDY    16   1  51 N9        30.21S WCI   4
BINGHAMTON     CLOUDY    12   3  67 NW10      30.12R WCI  -1
MONTICELLO     CLOUDY    16   1  53 NW13G18   30.10R WCI   2
$$

NYZ026>034-041>043-052000-
NORTH


CITY           SKY/WX    TMP DP  RH WIND       PRES   REMARKS
WATERTOWN      PTSUNNY   16  -2  45 N8        30.27F WCI   5
FORT DRUM      NOT AVBL
MASSENA        MOSUNNY   11  -8  42 W12       30.29R WCI  -3
SARANAC LAKE   PTSUNNY   10  -8  44 W8        30.05F WCI  -2
PLATTSBURGH    CLOUDY    14  -7  38 N14       30.21F WCI  -1
$$

NYZ001>004-010>016-019>021-052000-
WEST


CITY           SKY/WX    TMP DP  RH WIND       PRES   REMARKS
NIAGARA FALLS  LGT SNOW  11   3  70 NW10      30.31F WCI  -3
BUFFALO        LGT SNOW  11   3  70 NW10      30.30S VSB 3/4 WCI  -3
DUNKIRK        PTSUNNY    9  -1  64 NW9       30.33S WCI  -4
JAMESTOWN      PTSUNNY    7  -6  56 NW8       30.20S WCI  -6
WELLSVILLE     CLOUDY    10  -4  53 NW9       30.13S WCI  -3
ROCHESTER      CLOUDY    15   3  59 NW13      30.29R WCI   1
PENN YAN       CLOUDY    14   0  53 NW9       30.23F WCI   2
$$

             KEY
       WCI = WIND CHILL INDEX
       VSB = VISIBILITY
       HX  = HEAT INDEX
$$


USA.gov is the U.S. government's official web portal to all federal, state and local government web resources and services.